Regional Weather Roundup
Issued by NWS

Home | Current Version | Previous Version | Text Only | Print | Product List | Glossary On
Versions: 1 2 3 4 5 6 7 8 9 10 11 12 13 14 15 16 17 18 19 20 21 22 23 24 25 26 27 28 29 30 31 32 33 34 35 36 37 38 39 40 41 42 43 44 45 46 47 48 49 50
000
ASUS46 KLOX 111812
RWRCA

SOUTHERN CALIFORNIA WEATHER ROUNDUP
NATIONAL WEATHER SERVICE OXNARD CALIFORNIA
1100 AM PDT FRI JUL 11 2014

NOTE: "FAIR" INDICATES FEW OR NO CLOUDS BELOW 12,000 FEET WITH NO
SIGNIFICANT WEATHER AND/OR OBSTRUCTIONS TO VISIBILITY.

  -  STATIONS PRECEEDED BY AN ASTERISK (*) ARE NOT NWS OR FAA
     STATIONS AND ARE NOT SUBJECT TO NWS AND FAA QUALITY CONTROL.

CAZ041-042-087-111900-
LA AND ORANGE COUNTY COASTAL AREAS


CITY           SKY/WX    TMP DP  RH WIND       PRES   REMARKS
L.A. DOWNTOWN  SUNNY     78  58  49 CALM      29.99S
L.A. AIRPORT   MOSUNNY   73  59  61 W14       30.01S
LONG BEACH     SUNNY     74  60  61 S9        30.00S

CITY           SKY/WX    TMP DP  RH WIND       PRES   REMARKS
AVALON           N/A     72 N/A N/A N3          N/A
FULLERTON      SUNNY     78  59  51 VRB3      29.99S
HAWTHORNE      SUNNY     73  60  63 W8        30.01R
*LEO CARRILLO    N/A     73  61  65 W7          N/A
*LOS ALAMITOS  SUNNY     75  62  62 VRB5      30.00S
SANTA ANA      MOSUNNY   76  60  57 CALM      30.00S
STA MONICA APT SUNNY     74  59  59 S8        30.01S
TORRANCE       SUNNY     77  61  57 W12       30.01S
*UCLA            N/A     73  59  60 SE3       29.98S

$$

CAZ547-548-048-111900-
LA COUNTY VALLEYS AND INLAND EMPIRE


CITY           SKY/WX    TMP DP  RH WIND       PRES   REMARKS
BURBANK        SUNNY     75  58  55 SE6       30.00S
VAN NUYS       SUNNY     77  57  50 CALM      30.00S

CITY           SKY/WX    TMP DP  RH WIND       PRES   REMARKS
CORONA AIRPORT CLEAR     77  61  57 CALM      30.00F
CHINO          SUNNY     79  62  56 VRB3      30.01S
MARCH AFB      SUNNY     81  60  48 VRB6      30.01S
*NORTHRIDGE      N/A     77  57  50 SE2         N/A
ONTARIO        SUNNY     77  59  53 W6        30.00S
*PASADENA        N/A     77  64  65 E5          N/A
POMONA         SUNNY     73  59  60 W6        30.04
RIVERSIDE      SUNNY     76  60  57 W6        30.00S
SAN BERNARDINO SUNNY     79  55  44 W8        30.01S HAZE
*SAN GABRIEL     N/A     74  58  56 CALM      29.97S
*SAN RAFAEL HI   N/A     81  69  65 NE3         N/A
*SAUGUS          N/A     79  53  40 S13         N/A
*WHITEMAN AP   SUNNY     73  59  60 CALM      30.04  HAZE
*WOODLAND HILL   N/A     79  57  47 NE3         N/A

$$

CAZ054-055-111900-
LA AND SAN BERNARDINO COUNTY MOUNTAINS


CITY           SKY/WX    TMP DP  RH WIND       PRES   REMARKS
*BIG BEAR AIRP CLEAR     68  32  26 NE3       30.26S
*CHILAO          N/A     74  43  32 SW13        N/A
MT WILSON NWS    N/A     73  48  40 MISG        N/A
SANDBERG       SUNNY     78  41  26 S14       30.14S
*WARM SPRINGS    N/A     77  38  25 S2          N/A

$$

CAZ028-029-059-060-099-111900-
ANTELOPE VALLEY AND SURROUNDING AREAS


CITY           SKY/WX    TMP DP  RH WIND       PRES   REMARKS
LANCASTER      SUNNY     87  41  19 SW15G22   30.00R
PALMDALE       SUNNY     86  42  21 W9        30.01S

CITY           SKY/WX    TMP DP  RH WIND       PRES   REMARKS
29 PALMS       MOSUNNY   92  36  14 E7        30.03F
BARSTOW/DAGGET SUNNY     91  38  15 NW15      29.96S
BISHOP         MOSUNNY   88  35  15 S15       30.03F
CHINA LAKE     SUNNY     88  42  20 VRB3      29.97S
EDWARDS AFB    SUNNY     87  40  18 W12       29.98S
MOJAVE         FAIR      86  45  23 S8        30.01S
NEEDLES        SUNNY     95  61  32 VRB5      29.90S HX  95
VICTORVILLE    SUNNY     88  34  14 SE3       30.03S

$$

CAZ039-040-111900-
VENTURA AND SANTA BARBARA COUNTY COAST


CITY           SKY/WX    TMP DP  RH WIND       PRES   REMARKS
CAMARILLO      SUNNY     74  59  59 W9        30.01R
NWS OXNARD       N/A     71  60  67 W3        30.01R
OXNARD AIRPORT CLOUDY    69  59  70 W8        30.01R
*POINT MUGU    MOSUNNY   69  60  73 SW9       30.02R
SBA APT/GOLETA PTSUNNY   71  60  68 S8        30.01R
*SANTA BARBARA   N/A     73  60  65 CALM      30.10R
*VENTURA         N/A     70  60  70 SW7       30.05S

$$

CAZ044-045-111900-
VENTURA COUNTY VALLEYS


CITY           SKY/WX    TMP DP  RH WIND       PRES   REMARKS
*SIMI VALLEY     N/A     76  62  62 CALM      29.96S
*OJAI            N/A     78  62  57 CALM      29.94S
*FILLMORE        N/A     78  64  60 CALM      29.90S

$$

CAZ053-111900-
VENTURA COUNTY MOUNTAINS


CITY           SKY/WX    TMP DP  RH WIND       PRES   REMARKS
*LOCKWOOD VLY    N/A     77  30  18 MISG        N/A
*ROSE VALLEY     N/A     79  52  38 MISG        N/A

$$

CAZ034-035-036-111900-
CENTRAL COAST AND SANTA YNEZ VALLEY


CITY           SKY/WX    TMP DP  RH WIND       PRES   REMARKS
SAN LUIS OBISP PTSUNNY   68  55  63 CALM      30.03S
SANTA MARIA    CLOUDY    67  55  65 NW5       30.05R

CITY           SKY/WX    TMP DP  RH WIND       PRES   REMARKS
*CAMBRIA         N/A     64  58  81 NE6       29.94R
*LOMPOC        CLOUDY    66  54  63 CALM      30.05R
*PISMO BEACH     N/A     63  58  84 W5        30.05R

$$

CAZ037-038-051-111900-
SAN LUIS OBISPO COUNTY INTERIOR AND CUYAMA VALLEY


CITY           SKY/WX    TMP DP  RH WIND       PRES   REMARKS
*CUYAMA          N/A     82  45  26 NW3       29.88S
PASO ROBLES    SUNNY     69  54  58 W7        30.02S

$$

CAZ032-033-061-111900-
SOUTHERN DESERTS


CITY           SKY/WX    TMP DP  RH WIND       PRES   REMARKS
BLYTHE         SUNNY    102  35  10 NW12      29.85F HX  96
IMPERIAL       SUNNY     99  43  14 CALM      29.83F HX  95
PALM SPRINGS   SUNNY     96  42  15 CALM      29.89S HX  92
THERMAL        SUNNY     97  51  21 VRB5      29.82F HX  94

$$

ELSEWHERE ACROSS THE WESTERN UNITED STATES AND MEXICO


CITY           SKY/WX    TMP DP  RH WIND       PRES   REMARKS
DENVER, CO     MOSUNNY   87  53  31 VRB5      30.14F
GRAND CANYON,  SUNNY     76  47  35 W8        30.31S
HONOLULU, HI   PTSUNNY   79  64  61 NE10      30.01S
KAHULUI, MAUI  MOSUNNY   81  64  57 NE14G22   30.00S
LAKE TAHOE, CA PTSUNNY   72  45  37 N7        30.22R
LAS VEGAS, NV  MOSUNNY   89  58  34 CALM      29.95S
MAMMOTH LAKES, FAIR      75  34  22 E22       30.24F
MEXICO CITY, M MOSUNNY   68  50  52 N5        30.35F
PHOENIX, AZ    MOSUNNY   99  56  23 VRB3      29.89S HX  97
PORTLAND, OR   MOSUNNY   71  58  63 VRB5      29.96R
RENO, NV       PTSUNNY   82  44  26 VRB7      30.09S
SALT LAKE CITY CLOUDY    73  61  65 CALM      30.11S
SAN DIEGO, CA  MOSUNNY   76  59  55 W14       30.01S
SAN FRANCISCO, MOSUNNY   66  55  67 SW10      30.04R
SAN JOSE, CA   MOSUNNY   70  54  56 SW5       30.01R
SEATTLE, WA    SUNNY     75  56  51 W6        29.98S
TIJUANA, MEX   MOSUNNY   77  57  50 NW12      30.02S

$$

STATION/POSITION TIME  TEMP    WIND        PRES    VSBY  WAVE
                       AIR SEA DIR/SP/G                  HT/PER
                 (UTC) (F)     (DEG/KT/KT) (MB)    (MI)  (FT/S)
POINT ARGUELLO B NOT AVBL
WEST SANTA BARBA 1800   62 63  310/ 12/ 16 1016.3R         4/10
POINT CONCEPTION NOT AVBL
EAST SANTA BARBA 1700   64 67  260/ 10/ 12 1016.1
SANTA MONICA BAY 1800   66 71  290/  6/  8 1016.3R         2/12



USA.gov is the U.S. government's official web portal to all federal, state and local government web resources and services.